Showing default

LEMUR 2 NEUROSPICY, 63355

Orbit data source: Space-Track

LEMUR 2 NEUROSPICY, 63355 is a payload satellite owned by OroraTech (US) in SSO that was launched on Wed, 26 Mar 2025 UTC via an ELECTRON launch vehicle from the Rocket Lab Launch Complex (RLLC). Payload-class satellites include a variety of spacecraft equipped with specific instruments for various scientific and technological missions. These include communications satellites like Starlink; space stations such as the ISS; scientific satellites like the Hubble; Earth observation satellites from companies like Planet Labs, Umbra, and HawkEye 360; GPS; miniature CubeSats for education and research; and military/defense satellites.

Loading next visibility...
Identifier
63355, 2025-061E
Orbit
SSO
Country
Flag of USUS
Related business
Manufacturer
Spire/Glasgow
Mission
Operational Commercial Imaging
Bus & Motor
CUBESAT 6U, Unknown motor
Mass
~15 kg wet, ~15 kg dry
Launch date (UTC)
2025-03-26 (6 months ago)
Launch vehicle
ELECTRON
Launch site
Rocket Lab Launch Complex (RLLC)
Object type
Payload
Rocket body
Debris
Shape & HBR
Box + 2 Pan, 0.2 m
Radar Cross Section
0.065 m², Medium (>0.1 m² and < 1m²)

Expand to show TLE details & history
Last TLE update: 7 hours ago

TLE from 7 hours ago
0 LEMUR 2 NEUROSPICY
1 63355U 25061E   25262.19277555  .00005122  00000-0  30932-3 0  9994
2 63355  97.5307 235.7164 0020190 110.6163 249.7235 15.10969207 26643
Epoch: 2025-09-19T04:37Z
TLE epoch observation values (Epoch: 2025-09-19T04:37:35.807Z)
Latitude
Longitude
167.97366°
Altitude
541.179 km
Speed
7.589 km/s
True Right ascension
15h 42m 51s
True Declination
0° 00' 00"
Sunlit
Object was in daylight at epoch
Visualization orbit readout
Latitude
Unknown
Longitude
Unknown
Altitude
Unknown
Speed
Unknown
Apparent Right ascension
Unknown
Apparent Declination
Unknown
Sunlit
N/A
Visualization observer readout
Local Sidereal Time
04:33:43
Azimuth
Unknown
Elevation
Unknown
Doppler factor
Unknown
Orbital elements
Apogee altitude
544.174 km
Perigee altitude
516.278 km
Semi-major axis
6,908.363 km
Eccentricity
0.00202
Inclination
97.5307°
RAAN
235.7164°
Arg. of periapsis
110.6163°
True anomaly
249.50667°
Mean anomaly
249.7235°
Eccentric anomaly
249.61506°
Mean motion
3.7799 °/min
Orbital period
95.24 mins
BSTAR
0.00030932
Loading maneuver chart data...
Computing Atmospheric mass density...
Loading historical data...
Loading historical data...
Loading historical data...
Loading historical data...
Loading historical data...
Loading historical data...
Loading historical data...

Documentation

Showing up to 5 results
|